Location: Allonne
(49.4086°N, 2.1143°E)
Time: 03:57:13
(UTC+00:00)

UNISAT 6 - Pass Details

Date: 30 November 2023
Orbit: 596 x 671 km, 97.7° (Epoch: 22 February)

Event Time Altitude Azimuth Distance (km) Brightness Sun altitude
Rises 16:50:52 0° 15° (NNE) 3,007 ? -8.7°
Reaches altitude 10° 16:53:09 10° 19° (NNE) 2,080 ? -9.0°
Maximum altitude 16:57:39 64° 101° (E) 718 ? -9.7°
Drops below altitude 10° 17:02:02 10° 183° (S) 2,016 ? -10.4°
Sets 17:04:12 0° 187° (S) 2,906 ? -10.7°
